TimeEDT,TemperatureF,Dew PointF,Humidity,Sea Level PressureIn,VisibilityMPH,Wind Direction,Wind SpeedMPH,Gust SpeedMPH,PrecipitationIn,Events,Conditions,WindDirDegrees,DateUTC
12:53 AM,75.9,72.0,87,30.12,10.0,Calm,Calm,-,0.00,,Partly Cloudy,0,2013-08-19 04:53:00
1:10 AM,75.2,71.6,89,30.10,10.0,Calm,Calm,-,N/A,,Mostly Cloudy,0,2013-08-19 05:10:00
1:28 AM,75.2,71.6,89,30.09,10.0,East,3.5,-,N/A,,Scattered Clouds,90,2013-08-19 05:28:00
1:53 AM,75.9,72.0,87,30.10,10.0,Calm,Calm,-,N/A,,Clear,0,2013-08-19 05:53:00
2:53 AM,75.9,72.0,87,30.09,10.0,Calm,Calm,-,N/A,,Clear,0,2013-08-19 06:53:00
3:53 AM,75.9,72.0,87,30.09,10.0,Calm,Calm,-,N/A,,Partly Cloudy,0,2013-08-19 07:53:00
4:51 AM,75.2,71.6,89,30.06,10.0,Calm,Calm,-,N/A,,Mostly Cloudy,0,2013-08-19 08:51:00
4:53 AM,75.9,72.0,87,30.08,10.0,NNE,3.5,-,N/A,,Mostly Cloudy,20,2013-08-19 08:53:00
5:53 AM,77.0,73.0,88,30.07,10.0,ENE,4.6,-,0.12,,Overcast,60,2013-08-19 09:53:00
6:03 AM,75.2,73.4,94,30.05,10.0,ENE,3.5,-,N/A,,Overcast,60,2013-08-19 10:03:00
6:45 AM,77.0,73.4,89,30.06,9.0,Calm,Calm,-,N/A,,Mostly Cloudy,0,2013-08-19 10:45:00
6:53 AM,77.0,73.0,88,30.08,9.0,East,3.5,-,N/A,,Mostly Cloudy,100,2013-08-19 10:53:00
7:53 AM,78.1,73.9,87,30.09,10.0,SE,3.5,-,0.01,,Overcast,140,2013-08-19 11:53:00
8:53 AM,80.1,75.0,85,30.10,10.0,SE,5.8,-,N/A,,Overcast,140,2013-08-19 12:53:00
9:00 AM,80.6,75.2,84,30.08,10.0,SE,5.8,-,N/A,,Overcast,140,2013-08-19 13:00:00
9:53 AM,84.0,75.0,74,30.11,10.0,SSE,6.9,-,N/A,,Mostly Cloudy,150,2013-08-19 13:53:00
10:10 AM,84.2,75.2,74,30.09,10.0,SSE,4.6,-,N/A,,Mostly Cloudy,160,2013-08-19 14:10:00
10:30 AM,86.0,75.2,70,30.09,10.0,South,6.9,-,N/A,,Scattered Clouds,180,2013-08-19 14:30:00
10:53 AM,86.0,73.9,67,30.11,10.0,South,5.8,-,N/A,,Scattered Clouds,170,2013-08-19 14:53:00
11:53 AM,90.0,75.0,61,30.11,10.0,SE,3.5,-,N/A,,Scattered Clouds,130,2013-08-19 15:53:00
12:00 PM,89.6,73.4,59,30.08,10.0,South,3.5,-,N/A,,Mostly Cloudy,180,2013-08-19 16:00:00
12:27 PM,89.6,73.4,59,30.08,10.0,South,4.6,-,N/A,,Scattered Clouds,180,2013-08-19 16:27:00
12:53 PM,91.0,73.9,57,30.09,10.0,South,6.9,-,N/A,,Mostly Cloudy,180,2013-08-19 16:53:00
1:53 PM,91.9,73.0,54,30.08,10.0,South,6.9,-,N/A,,Mostly Cloudy,190,2013-08-19 17:53:00
2:00 PM,93.2,71.6,49,30.06,10.0,SSE,9.2,-,N/A,,Scattered Clouds,160,2013-08-19 18:00:00
2:43 PM,89.6,73.4,59,30.04,10.0,South,3.5,-,N/A,Thunderstorm,Mostly Cloudy,190,2013-08-19 18:43:00
2:53 PM,88.0,73.9,63,30.06,10.0,South,13.8,18.4,N/A,,Mostly Cloudy,180,2013-08-19 18:53:00
3:11 PM,80.6,71.6,74,30.03,1.8,South,11.5,-,0.07,Rain,Heavy Rain,190,2013-08-19 19:11:00
3:19 PM,80.6,71.6,74,30.03,3.0,South,5.8,-,0.08,Rain,Rain,190,2013-08-19 19:19:00
3:53 PM,84.9,73.9,69,30.03,10.0,East,5.8,-,0.08,,Scattered Clouds,80,2013-08-19 19:53:00
4:53 PM,90.0,73.0,57,30.02,10.0,Calm,Calm,-,N/A,,Scattered Clouds,0,2013-08-19 20:53:00
5:53 PM,80.1,72.0,76,30.05,2.0,WSW,4.6,-,0.04,Rain,Light Rain,240,2013-08-19 21:53:00
5:59 PM,78.8,73.4,83,30.03,0.8,Variable,6.9,-,0.05,Rain,Heavy Rain,0,2013-08-19 21:59:00
6:06 PM,78.8,73.4,83,30.03,2.0,Variable,3.5,-,0.06,Rain,Rain,0,2013-08-19 22:06:00
6:13 PM,78.8,73.4,83,30.03,9.0,Variable,3.5,-,0.07,Rain,Light Rain,0,2013-08-19 22:13:00
6:53 PM,78.1,73.9,87,30.03,10.0,Calm,Calm,-,0.07,Rain,Light Rain,0,2013-08-19 22:53:00
7:53 PM,78.1,73.9,87,30.04,10.0,Calm,Calm,-,0.00,,Mostly Cloudy,0,2013-08-19 23:53:00
8:53 PM,78.1,73.9,87,30.07,10.0,Calm,Calm,-,N/A,,Mostly Cloudy,0,2013-08-20 00:53:00
9:43 PM,78.8,73.4,83,30.06,10.0,NNE,5.8,-,N/A,,Overcast,20,2013-08-20 01:43:00
9:53 PM,78.1,73.9,87,30.09,10.0,NNE,4.6,-,N/A,,Overcast,20,2013-08-20 01:53:00
10:53 PM,78.1,73.9,87,30.09,10.0,North,4.6,-,N/A,,Mostly Cloudy,10,2013-08-20 02:53:00
11:53 PM,78.1,73.9,87,30.11,10.0,Calm,Calm,-,N/A,,Mostly Cloudy,0,2013-08-20 03:53:00